This is the latest recevied weather packets stored in our database for station/object K1BES. If no packets are shown the sender has not sent any weather packets the latest 10 day(s).
| Time | Temp. | Humidity | Pressure | Rain* | Wind** | Luminosity | Snow |
|---|---|---|---|---|---|---|---|
| 1787593218 | 32.22° C | 69% | 1019.3 hPa | 0 mm | - | 1061 W/m² | - |
| 1787592913 | 32.78° C | 68% | 1019.4 hPa | 0 mm | - | 209 W/m² | - |
| 1787592609 | 33.33° C | 63% | 1019.7 hPa | 0 mm | - | 144 W/m² | - |
| 1787592308 | 33.33° C | 63% | 1019.6 hPa | 0 mm | - | 1137 W/m² | - |
| 1787592004 | 33.33° C | 63% | 1019.6 hPa | 0 mm | - | 891 W/m² | - |
| 1787591704 | 32.78° C | 63% | 1019.6 hPa | 0 mm | - | 1032 W/m² | - |
| 1787591400 | 32.22° C | 63% | 1019.7 hPa | 0 mm | - | 1100 W/m² | - |
| 1787591094 | 31.67° C | 67% | 1019.5 hPa | 0 mm | - | 1114 W/m² | - |
| 1787590791 | 30.56° C | 67% | 1019.6 hPa | 0 mm | - | 1103 W/m² | - |
| 1787590485 | 30° C | 72% | 1020 hPa | 0 mm | - | 1008 W/m² | - |
| 1787590181 | 29.44° C | 74% | 1020.1 hPa | 0 mm | - | 358 W/m² | - |
| 1787589876 | 29.44° C | 71% | 1019.7 hPa | 0 mm | - | 153 W/m² | - |
| 1787589572 | 30.56° C | 75% | 1019.9 hPa | 0 mm | - | 137 W/m² | - |
| 1787589272 | 31.11° C | 73% | 1020 hPa | 0 mm | - | 106 W/m² | - |
| 1787588968 | 31.67° C | 72% | 1019.9 hPa | 0 mm | - | 110 W/m² | - |
| 1787588664 | 32.22° C | 70% | 1020.1 hPa | 0 mm | - | 153 W/m² | - |
| 1787588359 | 32.78° C | 68% | 1019.8 hPa | 0 mm | - | 201 W/m² | - |
| 1787588054 | 33.33° C | 66% | 1019.9 hPa | 0 mm | - | 1216 W/m² | - |
| 1787587750 | 33.89° C | 66% | 1020 hPa | 0 mm | - | 745 W/m² | - |
| 1787587444 | 33.89° C | 67% | 1020 hPa | 0 mm | - | 1133 W/m² | - |
| 1787587143 | 33.89° C | 67% | 1020.1 hPa | 0 mm | - | 1083 W/m² | - |
| 1787586838 | 33.33° C | 69% | 1020.3 hPa | 0 mm | - | 1001 W/m² | - |
| 1787586533 | 33.33° C | 70% | 1020.1 hPa | 0 mm | - | 921 W/m² | - |
| 1787586229 | 33.33° C | 68% | 1019.9 hPa | 0 mm | - | 884 W/m² | - |
| 1787585926 | 32.78° C | 68% | 1019.9 hPa | 0 mm | - | 878 W/m² | - |
* Rain latest hour (hover to see other rain measurements)
** Current wind speed in m/s (hover to see current wind gust speed)